Hourly Weather Otok

Today, 31 July, Saturday

Time Temperature Precipitation Wind Pressure Humidity
00:00 +17°C° 0 mm 3 mps 752 mmHg 70%
01:00 +16°C° 0 mm 3 mps 752 mmHg 70%
02:00 +17°C° 0 mm 3 mps 751 mmHg 70%
03:00 +18°C° 0 mm 3 mps 751 mmHg 69%
04:00 +18°C° 0 mm 3 mps 751 mmHg 69%
05:00 +19°C° 0.2 mm 4 mps 750 mmHg 71%
06:00 +19°C° 0.2 mm 5 mps 750 mmHg 73%
07:00 +18°C° 0.2 mm 7 mps 750 mmHg 76%
08:00 +21°C° 0 mm 7 mps 750 mmHg 65%
09:00 +22°C° 0 mm 8 mps 751 mmHg 55%
10:00 +24°C° 0 mm 8 mps 751 mmHg 45%
11:00 +23°C° 0 mm 9 mps 751 mmHg 46%
12:00 +23°C° 0 mm 9 mps 751 mmHg 48%
13:00 +22°C° 0 mm 9 mps 751 mmHg 50%
14:00 +23°C° 0 mm 9 mps 751 mmHg 48%
15:00 +23°C° 0 mm 10 mps 751 mmHg 47%
16:00 +23°C° 0 mm 10 mps 751 mmHg 45%
17:00 +22°C° 0 mm 10 mps 751 mmHg 50%
18:00 +21°C° 0 mm 10 mps 751 mmHg 55%
19:00 +21°C° 0 mm 9 mps 751 mmHg 59%
20:00 +19°C° 0 mm 9 mps 751 mmHg 64%
21:00 +18°C° 0 mm 9 mps 751 mmHg 69%
22:00 +17°C° 0 mm 8 mps 752 mmHg 73%
23:00 +17°C° 0 mm 8 mps 752 mmHg 77%

Tomorrow, 1 August, Sunday

Time Temperature Precipitation Wind Pressure Humidity
00:00 +16°C° 0 mm 7 mps 752 mmHg 81%
01:00 +15°C° 0 mm 7 mps 752 mmHg 85%
02:00 +15°C° 0 mm 6 mps 752 mmHg 86%
03:00 +15°C° 0 mm 6 mps 752 mmHg 88%
04:00 +15°C° 0 mm 6 mps 752 mmHg 90%
05:00 +15°C° 0.1 mm 6 mps 752 mmHg 86%
06:00 +16°C° 0.1 mm 6 mps 752 mmHg 82%
07:00 +17°C° 0.1 mm 6 mps 753 mmHg 78%
08:00 +19°C° 0.1 mm 6 mps 753 mmHg 72%
09:00 +20°C° 0.1 mm 6 mps 753 mmHg 66%
10:00 +21°C° 0.1 mm 6 mps 753 mmHg 60%
11:00 +22°C° 0.2 mm 6 mps 753 mmHg 58%
12:00 +22°C° 0.2 mm 5 mps 753 mmHg 57%
13:00 +22°C° 0.2 mm 5 mps 753 mmHg 56%
14:00 +22°C° 0.1 mm 5 mps 753 mmHg 55%
15:00 +22°C° 0.1 mm 4 mps 753 mmHg 55%
16:00 +22°C° 0.1 mm 4 mps 753 mmHg 55%
17:00 +21°C° 0.1 mm 4 mps 753 mmHg 58%
18:00 +21°C° 0.1 mm 3 mps 753 mmHg 62%
19:00 +20°C° 0.1 mm 3 mps 753 mmHg 66%
20:00 +19°C° 0 mm 3 mps 753 mmHg 72%
21:00 +17°C° 0 mm 3 mps 753 mmHg 79%
22:00 +16°C° 0 mm 3 mps 753 mmHg 85%
23:00 +14°C° 0.1 mm 3 mps 753 mmHg 87%

Day after tomorrow, 2 August, Monday

Time Temperature Precipitation Wind Pressure Humidity
00:00 +14°C° 0.1 mm 3 mps 753 mmHg 89%
01:00 +14°C° 0.1 mm 3 mps 753 mmHg 90%
02:00 +14°C° 0.1 mm 3 mps 753 mmHg 91%
03:00 +14°C° 0.1 mm 3 mps 753 mmHg 91%
04:00 +13°C° 0.1 mm 4 mps 753 mmHg 92%
05:00 +14°C° 0 mm 4 mps 753 mmHg 88%
06:00 +15°C° 0 mm 4 mps 754 mmHg 85%
07:00 +16°C° 0 mm 5 mps 754 mmHg 81%
08:00 +17°C° 0 mm 5 mps 754 mmHg 71%
09:00 +20°C° 0 mm 6 mps 754 mmHg 61%
10:00 +21°C° 0 mm 6 mps 754 mmHg 51%
11:00 +21°C° 0 mm 7 mps 754 mmHg 48%
12:00 +21°C° 0 mm 7 mps 754 mmHg 46%
13:00 +22°C° 0 mm 7 mps 755 mmHg 44%
14:00 +21°C° 0 mm 7 mps 755 mmHg 44%
15:00 +21°C° 0 mm 7 mps 755 mmHg 44%
16:00 +21°C° 0 mm 7 mps 755 mmHg 43%
17:00 +20°C° 0 mm 6 mps 755 mmHg 49%
18:00 +20°C° 0 mm 6 mps 755 mmHg 55%
19:00 +19°C° 0 mm 5 mps 755 mmHg 60%
20:00 +17°C° 0 mm 5 mps 756 mmHg 67%
21:00 +15°C° 0 mm 5 mps 756 mmHg 74%
22:00 +14°C° 0 mm 5 mps 756 mmHg 81%
23:00 +14°C° 0 mm 5 mps 756 mmHg 84%

3 August, Tuesday

Time Temperature Precipitation Wind Pressure Humidity
00:00 +13°C° 0 mm 5 mps 757 mmHg 88%
01:00 +13°C° 0 mm 6 mps 757 mmHg 91%
02:00 +13°C° 0.1 mm 5 mps 757 mmHg 91%
03:00 +13°C° 0.1 mm 5 mps 757 mmHg 91%
04:00 +12°C° 0.1 mm 5 mps 757 mmHg 91%
05:00 +14°C° 0 mm 5 mps 757 mmHg 85%
06:00 +15°C° 0 mm 6 mps 758 mmHg 78%
07:00 +16°C° 0 mm 6 mps 758 mmHg 71%
08:00 +17°C° 0 mm 5 mps 758 mmHg 63%
09:00 +20°C° 0 mm 5 mps 758 mmHg 54%
10:00 +21°C° 0 mm 5 mps 758 mmHg 46%
11:00 +22°C° 0 mm 5 mps 758 mmHg 43%
12:00 +23°C° 0 mm 4 mps 758 mmHg 41%
13:00 +23°C° 0 mm 4 mps 758 mmHg 38%
14:00 +24°C° 0 mm 3 mps 757 mmHg 39%
15:00 +24°C° 0 mm 3 mps 757 mmHg 39%
16:00 +24°C° 0 mm 2 mps 757 mmHg 40%
17:00 +23°C° 0 mm 2 mps 757 mmHg 45%
18:00 +21°C° 0 mm 2 mps 757 mmHg 50%
19:00 +20°C° 0 mm 2 mps 757 mmHg 55%
20:00 +19°C° 0.2 mm 2 mps 757 mmHg 65%
21:00 +17°C° 0.2 mm 2 mps 757 mmHg 75%
22:00 +16°C° 0.2 mm 2 mps 757 mmHg 85%
23:00 +16°C° 0.1 mm 2 mps 757 mmHg 86%

4 August, Wednesday

Time Temperature Precipitation Wind Pressure Humidity
00:00 +16°C° 0.1 mm 3 mps 757 mmHg 87%
01:00 +16°C° 0.1 mm 3 mps 757 mmHg 88%
02:00 +14°C° 0.1 mm 3 mps 756 mmHg 90%
03:00 +14°C° 0.1 mm 3 mps 756 mmHg 93%
04:00 +14°C° 0.1 mm 3 mps 756 mmHg 95%
05:00 +16°C° 0.1 mm 3 mps 756 mmHg 93%
06:00 +16°C° 0.1 mm 2 mps 756 mmHg 91%
07:00 +17°C° 0.1 mm 2 mps 756 mmHg 90%
08:00 +18°C° 0.1 mm 2 mps 756 mmHg 85%
09:00 +18°C° 0.1 mm 2 mps 756 mmHg 80%
10:00 +20°C° 0.1 mm 1 mps 756 mmHg 75%
11:00 +20°C° 0.1 mm 2 mps 755 mmHg 70%
12:00 +21°C° 0.1 mm 2 mps 755 mmHg 65%
13:00 +22°C° 0.1 mm 3 mps 755 mmHg 60%
14:00 +22°C° 0.1 mm 3 mps 755 mmHg 60%
15:00 +22°C° 0.1 mm 3 mps 755 mmHg 60%
16:00 +22°C° 0.1 mm 3 mps 755 mmHg 60%
17:00 +21°C° 0 mm 3 mps 755 mmHg 65%
18:00 +20°C° 0 mm 3 mps 755 mmHg 70%
19:00 +19°C° 0 mm 3 mps 755 mmHg 76%
20:00 +18°C° 0 mm 3 mps 755 mmHg 80%
21:00 +17°C° 0 mm 3 mps 755 mmHg 85%
22:00 +16°C° 0 mm 2 mps 755 mmHg 90%
23:00 +16°C° 0 mm 2 mps 755 mmHg 91%

5 August, Thursday

Time Temperature Precipitation Wind Pressure Humidity
00:00 +16°C° 0 mm 2 mps 754 mmHg 91%
01:00 +16°C° 0 mm 2 mps 754 mmHg 91%
02:00 +16°C° 0.1 mm 1 mps 754 mmHg 92%
03:00 +15°C° 0.1 mm 1 mps 754 mmHg 92%
04:00 +15°C° 0.1 mm 1 mps 754 mmHg 92%
05:00 +16°C° 0.1 mm 1 mps 753 mmHg 89%
06:00 +18°C° 0.1 mm 1 mps 753 mmHg 85%
07:00 +18°C° 0.1 mm 2 mps 753 mmHg 81%
08:00 +21°C° 0 mm 1 mps 753 mmHg 74%
09:00 +22°C° 0 mm 1 mps 753 mmHg 67%
10:00 +24°C° 0 mm 1 mps 753 mmHg 60%
11:00 +24°C° 0.4 mm 1 mps 752 mmHg 58%
12:00 +25°C° 0.4 mm 1 mps 752 mmHg 55%
13:00 +25°C° 0.4 mm 2 mps 752 mmHg 52%
14:00 +25°C° 0.3 mm 2 mps 752 mmHg 55%
15:00 +24°C° 0.3 mm 2 mps 752 mmHg 57%
16:00 +24°C° 0.3 mm 2 mps 751 mmHg 59%
17:00 +23°C° 0.2 mm 2 mps 751 mmHg 64%
18:00 +21°C° 0.2 mm 2 mps 751 mmHg 68%
19:00 +21°C° 0.2 mm 1 mps 751 mmHg 73%
20:00 +20°C° 0.1 mm 1 mps 751 mmHg 76%
21:00 +19°C° 0.1 mm 1 mps 751 mmHg 80%
22:00 +18°C° 0.1 mm 1 mps 751 mmHg 83%
23:00 +17°C° 0 mm 2 mps 750 mmHg 84%
Show more